Lid_Strength_Index
9 10 10 10 11 12 13 14 14 13 13 13 14 15 15 16 16 16 15 15 16 15 16 16 16 16 16 16 16 16 16 16 16 16 16 16 15 15 14 14 14 13 11
10 11 11 12 12 14 13 14 14 14 13 13 13 15 15 16 16 16 16 16 16 16 16 16 17 17 17 17 17 16 17 16 16 17 18 18 16 15 14 14 13 13 12
11 12 13 12 13 14 14 14 14 13 13 13 14 16 16 16 17 17 16 16 16 16 16 17 17 17 17 17 17 17 17 18 17 17 17 19 19 17 15 15 14 14 13
11 12 12 14 13 14 14 13 14 14 13 14 14 16 15 16 16 15 16 16 16 16 16 17 17 17 17 17 17 17 17 18 18 17 16 17 17 19 19 16 15 14 14
12 12 12 11 13 14 14 14 14 14 14 14 14 15 16 15 17 17 17 17 17 17 17 17 17 18 18 17 17 18 18 18 18 18 18 18 18 17 18 20 19 16 15
12 12 12 13 14 14 14 14 14 14 14 14 14 15 16 18 18 17 17 17 17 18 18 17 18 18 18 18 18 18 18 18 18 18 18 18 19 19 19 19 19 19 17
13 14 14 13 14 15 14 14 14 14 14 14 15 15 16 17 17 17 17 18 18 19 18 18 18 19 19 18 18 18 19 19 19 19 19 18 18 18 18 19 19 20 18
13 13 13 13 14 14 14 14 14 15 15 15 15 15 16 16 16 16 16 17 17 18 19 19 19 19 19 19 19 19 19 19 19 19 19 19 18 18 17 18 19 20 19
13 13 14 13 14 14 14 14 14 14 15 15 15 16 16 16 17 17 17 17 17 18 19 19 20 20 20 20 20 20 20 19 19 19 19 19 18 17 17 17 18 19 22
12 13 13 14 14 13 14 14 14 14 15 15 15 16 16 16 16 17 18 18 18 19 19 20 20 20 20 20 20 20 20 20 19 19 19 19 19 19 18 18 19 19 20
13 12 12 12 12 13 14 14 14 15 15 15 15 16 16 16 17 17 18 18 19 19 20 20 20 20 20 20 21 21 21 21 22 21 21 20 20 21 21 21 21 21 21
12 12 12 12 14 14 14 15 15 15 15 16 16 16 17 17 18 18 19 19 19 20 20 20 20 21 21 21 22 22 22 22 22 22 22 22 21 23 22 22 22 22 21
12 12 13 13 13 13 14 14 14 15 15 16 17 17 18 18 18 19 20 19 20 20 20 20 21 21 22 22 22 22 22 22 22 22 23 23 23 23 23 23 23 22 21
11 11 11 13 13 14 14 14 15 15 16 16 17 17 17 18 18 20 20 20 20 21 21 21 22 22 22 22 22 22 22 22 22 22 22 23 22 23 23 23 23 22 22
12 11 12 12 13 13 14 15 15 16 16 16 17 17 18 18 19 20 20 21 21 21 21 22 22 22 23 22 22 22 22 22 22 22 22 21 21 20 20 20 21 20 21
10 10 11 12 12 13 13 14 14 16 15 16 16 17 18 20 20 20 21 21 22 22 22 23 23 23 22 19 18 20 21 21 21 21 21 20 20 20 18 17 17 17 19
9 10 11 11 12 13 13 15 15 16 16 16 17 18 19 20 20 20 21 21 22 22 22 22 22 22 21 17 17 17 18 20 20 20 20 20 20 19 19 18 17 16 16
8 10 11 11 12 13 14 14 16 16 16 17 17 19 19 20 21 21 21 21 22 22 22 22 21 21 21 17 16 16 18 19 20 20 20 20 19 18 18 18 18 17 17
7 7 9 10 11 12 13 15 16 16 16 17 18 19 20 21 22 21 21 21 21 22 21 21 22 21 21 16 16 16 18 19 19 19 19 19 18 17 16 17 18 18 18
9 10 10 11 12 13 16 16 16 16 17 17 18 20 20 21 22 21 22 22 22 22 21 22 22 21 23 17 17 16 19 22 20 19 18 17 17 16 16 16 18 20 19
11 12 13 13 14 16 16 16 17 17 16 18 19 20 20 21 21 22 22 23 22 21 22 22 22 23 23 22 17 15 18 20 21 19 19 18 17 16 14 14 17 19 16
10 11 13 14 15 16 17 17 17 18 19 19 21 21 21 22 23 23 24 23 23 23 23 24 23 22 21 20 17 16 15 16 20 21 18 18 16 16 15 16 16 15 16
10 10 12 14 15 17 16 16 18 19 20 21 21 22 23 24 24 24 25 25 24 24 24 23 23 22 20 20 17 16 16 16 18 18 17 17 17 17 18 18 17 18 21
12 10 11 11 11 16 16 15 18 19 20 22 22 23 24 25 25 24 25 24 25 23 23 23 23 22 22 22 21 21 20 17 18 19 23 20 19 19 19 20 20 20 20
12 11 12 13 12 13 15 15 18 19 20 21 23 24 24 25 25 24 24 24 22 21 22 22 21 22 22 22 19 19 20 20 19 28 29 27 23 22 22 22 21 21 21
15 14 13 13 13 12 14 15 18 19 21 22 23 24 25 25 25 25 24 20 20 19 18 18 20 20 18 16 15 16 16 18 18 29 31 28 25 24 24 23 23 22 22